Regional Weather Roundup
Issued by NWS

Home | Current Version | Previous Version | Graphics & Text | Print | Product List | Glossary Off
Versions: 1 2 3 4 5 6 7 8 9 10 11 12 13 14 15 16 17 18 19 20 21 22 23 24 25 26 27 28 29 30 31 32 33 34 35 36 37 38 39 40 41 42 43 44 45 46 47 48 49 50

000
ASUS43 KTOP 221959
RWRKS

WEATHER ROUNDUP FOR KANSAS
NATIONAL WEATHER SERVICE GOODLAND KS
300 PM CDT FRI AUG 22 2014

NOTE:  "FAIR" INDICATES FEW OR NO CLOUDS BELOW 12,000 FEET WITH NO
SIGNIFICANT WEATHER AND/OR OBSTRUCTIONS TO VISIBILITY.

KSZ001>006-013>018-027>032-041>047-222100-
NORTHWEST KANSAS

CITY           SKY/WX    TMP DP  RH WIND       PRES   REMARKS
GOODLAND       PTSUNNY   87  64  46 E20G28    30.02F
HAYS           SUNNY     97  66  36 SE10G20   29.90F HX 100
HILL CITY      SUNNY     93  64  38 E16G22    29.93F
RUSSELL        SUNNY     97  66  36 E7        29.88F HX 100
$$

KSZ061>065-074>080-084>089-222100-
SOUTHWEST KANSAS

CITY           SKY/WX    TMP DP  RH WIND       PRES   REMARKS
DODGE CITY     SUNNY     94  62  34 S12       29.92F
ELKHART          N/A     98  55  23 S15         N/A  HX  96
GARDEN CITY    MOSUNNY   94  57  28 CALM      29.92F
GREAT BEND     MOSUNNY   97  64  34 S15       29.88F HX  99
LIBERAL        SUNNY    100  57  23 S20G26    29.93F HX  99
$$

KSZ066>073-081>083-090>101-222100-
SOUTHEAST KANSAS

CITY           SKY/WX    TMP DP  RH WIND       PRES   REMARKS
CHANUTE        MOSUNNY   99  71  40 S15       29.94F HX 107
COFFEYVILLE    SUNNY     99  71  40 S15       29.93S HX 107
HUTCHINSON     MOSUNNY  102  66  30 S14       29.88F HX 106
NEWTON         MOSUNNY   99  66  34 S13       29.95F HX 102
PARSONS        SUNNY     98  71  41 S10G21    29.95F HX 106
WICHITA INTL   MOSUNNY  101  65  30 S14       29.88F HX 104
WICHITA JABRA  MOSUNNY   98  67  36 S14G25    29.90F HX 102
WINFIELD       SUNNY     99  68  36 S15G25    29.93S HX 104
$$

KSZ007>012-019>026-033>040-048>060-102>105-222100-
NORTHEAST KANSAS

CITY           SKY/WX    TMP DP  RH WIND       PRES   REMARKS
CONCORDIA      MOSUNNY   88  75  65 SE12      29.90F HX  97
EMPORIA        CLOUDY    83  71  67 S10       29.95R
LAWRENCE       PTSUNNY   99  71  40 S5        29.90F HX 107
MANHATTAN      PTSUNNY   96  70  42 SW5       29.89F HX 102
OLATHE IND     PTSUNNY   95  73  48 S7        29.93F HX 104
OLATHE EXE     PTSUNNY   91  75  59 S8        29.93F HX 101
SALINA         CLOUDY    94  71  47 SE13      29.89F HX 101
TOPEKA BILLARD PTSUNNY   92  71  50 SW14G21   29.91S HX  98
TOPEKA FORBES  PTSUNNY   89  69  51 S15       29.92S
$$


USA.gov is the U.S. government's official web portal to all federal, state and local government web resources and services.